Time,TemperatureF,DewpointF,PressureIn,WindDirection,WindDirectionDegrees,WindSpeedMPH,WindSpeedGustMPH,Humidity,HourlyPrecipIn,Conditions,Clouds,dailyrainin,SoftwareType,DateUTC
2015-08-02 00:14:00,72.5,54.0,29.80,SE,127,0.0,0.0,53,0.00,,,0.00,weatherlink.com 1.10,2015-08-02 07:14:00,
2015-08-02 00:29:00,72.2,54.0,29.79,SE,127,0.0,0.0,53,0.00,,,0.00,weatherlink.com 1.10,2015-08-02 07:29:00,
2015-08-02 00:44:00,71.8,54.0,29.79,SE,127,0.0,1.0,53,0.00,,,0.00,weatherlink.com 1.10,2015-08-02 07:44:00,
2015-08-02 00:59:00,71.3,54.0,29.79,SE,127,0.0,1.0,54,0.00,,,0.00,weatherlink.com 1.10,2015-08-02 07:59:00,
2015-08-02 01:14:00,71.1,53.0,29.79,SE,126,0.0,0.0,54,0.00,,,0.00,weatherlink.com 1.10,2015-08-02 08:14:00,
2015-08-02 01:29:00,71.1,54.0,29.79,SE,126,0.0,0.0,55,0.00,,,0.00,weatherlink.com 1.10,2015-08-02 08:29:00,
2015-08-02 01:44:00,71.0,54.0,29.79,SE,126,0.0,0.0,55,0.00,,,0.00,weatherlink.com 1.10,2015-08-02 08:44:00,
2015-08-02 01:59:00,70.9,54.0,29.80,SE,126,0.0,0.0,56,0.00,,,0.00,weatherlink.com 1.10,2015-08-02 08:59:00,
2015-08-02 02:14:00,70.8,54.0,29.80,SE,126,0.0,0.0,55,0.00,,,0.00,weatherlink.com 1.10,2015-08-02 09:14:00,
2015-08-02 02:29:00,70.4,53.0,29.80,SE,127,0.0,0.0,55,0.00,,,0.00,weatherlink.com 1.10,2015-08-02 09:29:00,
2015-08-02 02:44:00,70.1,52.0,29.79,SE,127,0.0,0.0,53,0.00,,,0.00,weatherlink.com 1.10,2015-08-02 09:44:00,
2015-08-02 02:59:00,70.2,52.0,29.79,SE,127,0.0,0.0,53,0.00,,,0.00,weatherlink.com 1.10,2015-08-02 09:59:00,
2015-08-02 03:14:00,70.2,52.0,29.79,SE,127,0.0,0.0,53,0.00,,,0.00,weatherlink.com 1.10,2015-08-02 10:14:00,
2015-08-02 03:29:00,70.2,52.0,29.78,SE,127,0.0,0.0,53,0.00,,,0.00,weatherlink.com 1.10,2015-08-02 10:29:00,
2015-08-02 03:44:00,70.7,52.0,29.78,SE,127,0.0,1.0,52,0.00,,,0.00,weatherlink.com 1.10,2015-08-02 10:44:00,
2015-08-02 03:59:00,71.0,52.0,29.78,SE,127,0.0,0.0,51,0.00,,,0.00,weatherlink.com 1.10,2015-08-02 10:59:00,
2015-08-02 04:29:00,71.7,51.0,29.77,SE,127,0.0,1.0,49,0.00,,,0.00,weatherlink.com 1.10,2015-08-02 11:29:00,
2015-08-02 04:44:00,71.9,51.0,29.77,SE,127,0.0,0.0,48,0.00,,,0.00,weatherlink.com 1.10,2015-08-02 11:44:00,
2015-08-02 04:59:00,72.7,51.0,29.77,SE,127,0.0,1.0,46,0.00,,,0.00,weatherlink.com 1.10,2015-08-02 11:59:00,
2015-08-02 05:14:00,73.0,50.0,29.77,SE,127,0.0,1.0,45,0.00,,,0.00,weatherlink.com 1.10,2015-08-02 12:14:00,
2015-08-02 05:29:00,73.1,50.0,29.77,SE,127,0.0,0.0,44,0.00,,,0.00,weatherlink.com 1.10,2015-08-02 12:29:00,
2015-08-02 05:44:00,73.3,49.0,29.77,SE,127,0.0,0.0,43,0.00,,,0.00,weatherlink.com 1.10,2015-08-02 12:44:00,
2015-08-02 05:59:00,73.7,50.0,29.77,SE,127,0.0,0.0,43,0.00,,,0.00,weatherlink.com 1.10,2015-08-02 12:59:00,
2015-08-02 06:14:00,73.6,49.0,29.77,SE,126,0.0,0.0,42,0.00,,,0.00,weatherlink.com 1.10,2015-08-02 13:14:00,
2015-08-02 06:29:00,73.5,50.0,29.77,SE,126,0.0,0.0,44,0.00,,,0.00,weatherlink.com 1.10,2015-08-02 13:29:00,
2015-08-02 06:44:00,73.2,49.0,29.78,SE,127,0.0,0.0,43,0.00,,,0.00,weatherlink.com 1.10,2015-08-02 13:44:00,
2015-08-02 06:59:00,72.9,50.0,29.78,SE,127,0.0,0.0,45,0.00,,,0.00,weatherlink.com 1.10,2015-08-02 13:59:00,
2015-08-02 07:14:00,72.6,51.0,29.78,SE,127,0.0,0.0,46,0.00,,,0.00,weatherlink.com 1.10,2015-08-02 14:14:00,
2015-08-02 07:29:00,72.6,52.0,29.79,SE,127,0.0,0.0,48,0.00,,,0.00,weatherlink.com 1.10,2015-08-02 14:29:00,
2015-08-02 07:44:00,72.4,51.0,29.79,SE,127,0.0,0.0,47,0.00,,,0.00,weatherlink.com 1.10,2015-08-02 14:44:00,
2015-08-02 07:59:00,72.5,51.0,29.80,SE,126,0.0,0.0,47,0.00,,,0.00,weatherlink.com 1.10,2015-08-02 14:59:00,
2015-08-02 08:14:00,72.8,51.0,29.80,SE,126,0.0,0.0,47,0.00,,,0.00,weatherlink.com 1.10,2015-08-02 15:14:00,
2015-08-02 08:29:00,73.2,53.0,29.80,SE,126,0.0,0.0,50,0.00,,,0.00,weatherlink.com 1.10,2015-08-02 15:29:00,
2015-08-02 08:44:00,73.5,54.0,29.80,SE,127,0.0,0.0,50,0.00,,,0.00,weatherlink.com 1.10,2015-08-02 15:44:00,
2015-08-02 08:59:00,73.8,53.0,29.80,SE,126,0.0,0.0,48,0.00,,,0.00,weatherlink.com 1.10,2015-08-02 15:59:00,
2015-08-02 09:14:00,74.0,54.0,29.80,SE,127,0.0,0.0,50,0.00,,,0.00,weatherlink.com 1.10,2015-08-02 16:14:00,
2015-08-02 09:29:00,74.8,54.0,29.81,SE,126,0.0,0.0,49,0.00,,,0.00,weatherlink.com 1.10,2015-08-02 16:29:00,
2015-08-02 09:45:00,74.7,54.0,29.80,SSW,192,0.0,1.0,48,0.00,,,0.00,weatherlink.com 1.10,2015-08-02 16:45:00,
2015-08-02 10:00:00,76.3,52.0,29.81,SSW,208,0.0,1.0,43,0.00,,,0.00,weatherlink.com 1.10,2015-08-02 17:00:00,
2015-08-02 10:15:00,77.5,52.0,29.81,SSW,207,0.0,1.0,41,0.00,,,0.00,weatherlink.com 1.10,2015-08-02 17:15:00,
2015-08-02 10:30:00,78.2,53.0,29.81,SSW,209,0.0,1.0,42,0.00,,,0.00,weatherlink.com 1.10,2015-08-02 17:30:00,
2015-08-02 10:45:00,78.7,54.0,29.81,SW,232,0.0,1.0,42,0.00,,,0.00,weatherlink.com 1.10,2015-08-02 17:45:00,
2015-08-02 11:00:00,80.1,53.0,29.81,SW,232,0.0,1.0,39,0.00,,,0.00,weatherlink.com 1.10,2015-08-02 18:00:00,
2015-08-02 11:15:00,81.3,54.0,29.81,East,101,0.0,1.0,39,0.00,,,0.00,weatherlink.com 1.10,2015-08-02 18:15:00,
2015-08-02 11:30:00,82.6,54.0,29.81,SSW,205,0.0,1.0,37,0.00,,,0.00,weatherlink.com 1.10,2015-08-02 18:30:00,
2015-08-02 11:45:00,84.2,55.0,29.81,SSW,205,0.0,1.0,37,0.00,,,0.00,weatherlink.com 1.10,2015-08-02 18:45:00,
2015-08-02 12:00:00,83.2,54.0,29.81,WSW,254,0.0,1.0,36,0.00,,,0.00,weatherlink.com 1.10,2015-08-02 19:00:00,
2015-08-02 12:15:00,82.3,53.0,29.81,WSW,254,0.0,1.0,37,0.00,,,0.00,weatherlink.com 1.10,2015-08-02 19:15:00,
2015-08-02 12:30:00,82.7,53.0,29.81,WSW,254,0.0,1.0,36,0.00,,,0.00,weatherlink.com 1.10,2015-08-02 19:30:00,
2015-08-02 12:45:00,82.5,54.0,29.81,WSW,242,0.0,1.0,37,0.00,,,0.00,weatherlink.com 1.10,2015-08-02 19:45:00,
2015-08-02 13:00:00,82.9,53.0,29.81,WSW,253,0.0,1.0,35,0.00,,,0.00,weatherlink.com 1.10,2015-08-02 20:00:00,
2015-08-02 13:15:00,83.0,53.0,29.80,WSW,253,0.0,0.0,36,0.00,,,0.00,weatherlink.com 1.10,2015-08-02 20:15:00,
2015-08-02 13:30:00,84.4,51.0,29.80,NW,310,0.0,1.0,32,0.00,,,0.00,weatherlink.com 1.10,2015-08-02 20:30:00,
2015-08-02 13:45:00,86.1,54.0,29.80,SW,230,0.0,1.0,33,0.00,,,0.00,weatherlink.com 1.10,2015-08-02 20:45:00,
2015-08-02 14:00:00,88.0,51.0,29.80,West,277,0.0,1.0,28,0.00,,,0.00,weatherlink.com 1.10,2015-08-02 21:00:00,
2015-08-02 14:15:00,86.0,53.0,29.79,South,191,0.0,1.0,32,0.00,,,0.00,weatherlink.com 1.10,2015-08-02 21:15:00,
2015-08-02 14:30:00,87.0,51.0,29.79,SSW,210,0.0,1.0,29,0.00,,,0.00,weatherlink.com 1.10,2015-08-02 21:30:00,
2015-08-02 14:45:00,87.6,52.0,29.78,West,265,0.0,1.0,29,0.00,,,0.00,weatherlink.com 1.10,2015-08-02 21:45:00,
2015-08-02 15:00:00,87.1,51.0,29.78,West,268,0.0,1.0,29,0.00,,,0.00,weatherlink.com 1.10,2015-08-02 22:00:00,
2015-08-02 15:15:00,86.9,52.0,29.78,East,82,0.0,7.0,30,0.00,,,0.00,weatherlink.com 1.10,2015-08-02 22:15:00,
2015-08-02 15:30:00,86.2,51.0,29.78,SSW,202,0.0,6.0,30,0.00,,,0.00,weatherlink.com 1.10,2015-08-02 22:30:00,
2015-08-02 15:45:00,85.8,53.0,29.77,WSW,240,0.0,6.0,32,0.00,,,0.00,weatherlink.com 1.10,2015-08-02 22:45:00,
2015-08-02 16:00:00,85.6,53.0,29.77,South,184,0.0,3.0,32,0.00,,,0.00,weatherlink.com 1.10,2015-08-02 23:00:00,
2015-08-02 16:15:00,85.0,52.0,29.77,SW,232,0.0,1.0,32,0.00,,,0.00,weatherlink.com 1.10,2015-08-02 23:15:00,
2015-08-02 16:30:00,85.0,51.0,29.77,SSW,205,0.0,1.0,31,0.00,,,0.00,weatherlink.com 1.10,2015-08-02 23:30:00,
2015-08-02 16:45:00,84.4,51.0,29.77,WSW,252,0.0,2.0,32,0.00,,,0.00,weatherlink.com 1.10,2015-08-02 23:45:00,
2015-08-02 17:00:00,84.4,52.0,29.76,SSW,209,0.0,2.0,33,0.00,,,0.00,weatherlink.com 1.10,2015-08-03 00:00:00,
2015-08-02 17:15:00,85.0,52.0,29.76,SW,215,0.0,4.0,32,0.00,,,0.00,weatherlink.com 1.10,2015-08-03 00:15:00,
2015-08-02 17:30:00,85.1,52.0,29.76,SW,218,0.0,1.0,32,0.00,,,0.00,weatherlink.com 1.10,2015-08-03 00:30:00,
2015-08-02 17:45:00,85.1,50.0,29.76,West,267,0.0,4.0,30,0.00,,,0.00,weatherlink.com 1.10,2015-08-03 00:45:00,
2015-08-02 18:00:00,84.1,53.0,29.76,SSW,206,0.0,1.0,34,0.00,,,0.00,weatherlink.com 1.10,2015-08-03 01:00:00,
2015-08-02 18:15:00,83.6,52.0,29.75,WSW,253,0.0,1.0,34,0.00,,,0.00,weatherlink.com 1.10,2015-08-03 01:15:00,
2015-08-02 18:30:00,82.6,51.0,29.75,WSW,253,0.0,0.0,34,0.00,,,0.00,weatherlink.com 1.10,2015-08-03 01:30:00,
2015-08-02 18:45:00,81.8,52.0,29.75,WSW,257,0.0,1.0,36,0.00,,,0.00,weatherlink.com 1.10,2015-08-03 01:45:00,
2015-08-02 19:00:00,81.2,53.0,29.75,WSW,253,0.0,1.0,38,0.00,,,0.00,weatherlink.com 1.10,2015-08-03 02:00:00,
2015-08-02 19:15:00,80.6,53.0,29.75,WSW,253,0.0,0.0,39,0.00,,,0.00,weatherlink.com 1.10,2015-08-03 02:15:00,
2015-08-02 19:30:00,79.9,53.0,29.75,WSW,253,0.0,0.0,39,0.00,,,0.00,weatherlink.com 1.10,2015-08-03 02:30:00,
2015-08-02 19:45:00,78.9,52.0,29.76,WSW,253,0.0,0.0,39,0.00,,,0.00,weatherlink.com 1.10,2015-08-03 02:45:00,
2015-08-02 20:00:00,77.9,52.0,29.76,WSW,253,0.0,0.0,41,0.00,,,0.00,weatherlink.com 1.10,2015-08-03 03:00:00,
2015-08-02 20:15:00,76.7,52.0,29.76,WSW,253,0.0,0.0,43,0.00,,,0.00,weatherlink.com 1.10,2015-08-03 03:15:00,
2015-08-02 20:30:00,75.7,53.0,29.76,WSW,253,0.0,0.0,45,0.00,,,0.00,weatherlink.com 1.10,2015-08-03 03:30:00,
2015-08-02 20:45:00,75.0,53.0,29.76,WSW,253,0.0,0.0,47,0.00,,,0.00,weatherlink.com 1.10,2015-08-03 03:45:00,
2015-08-02 21:00:00,74.2,53.0,29.76,WSW,253,0.0,0.0,48,0.00,,,0.00,weatherlink.com 1.10,2015-08-03 04:00:00,
2015-08-02 21:15:00,73.5,54.0,29.77,WSW,253,0.0,0.0,50,0.00,,,0.00,weatherlink.com 1.10,2015-08-03 04:15:00,
2015-08-02 21:30:00,73.0,54.0,29.77,WSW,253,0.0,0.0,52,0.00,,,0.00,weatherlink.com 1.10,2015-08-03 04:30:00,
2015-08-02 21:45:00,72.4,54.0,29.77,WSW,253,0.0,0.0,53,0.00,,,0.00,weatherlink.com 1.10,2015-08-03 04:45:00,
2015-08-02 22:00:00,71.8,55.0,29.78,WSW,253,0.0,0.0,55,0.00,,,0.00,weatherlink.com 1.10,2015-08-03 05:00:00,
2015-08-02 22:15:00,71.5,54.0,29.77,WSW,253,0.0,0.0,54,0.00,,,0.00,weatherlink.com 1.10,2015-08-03 05:15:00,